Location: Brno
(49.2000°N, 16.6330°E)
Time: 17:55:38
(UTC+02:00)

Cosmos 332 Rocket - Visible Passes

Search period start: 30 August 2015 00:00
Search period end: 09 September 2015 00:00
Orbit: 683 x 706 km, 74.0° (Epoch: 29 August)

Date Brightness Start Highest point End Pass type
(mag) Time Alt. Az. Time Alt. Az. Time Alt. Az.
30 Aug 6.1 05:27:16 10° N 05:31:36 31° NE 05:35:58 10° ESE visible
30 Aug 5.1 21:35:12 10° SW 21:39:48 43° WNW 21:44:27 10° NNE visible
31 Aug 7.0 04:29:04 10° N 04:31:52 15° NE 04:34:48 10° E visible
31 Aug 3.7 20:35:49 10° SSW 20:40:37 79° ESE 20:45:29 10° NNE visible
31 Aug 6.6 22:18:19 10° W 22:21:46 19° NW 22:25:09 10° N visible
01 Sep 5.8 05:09:31 10° N 05:13:58 33° NE 05:18:27 10° ESE visible
01 Sep 5.3 21:17:37 10° SW 21:22:10 39° WNW 21:26:44 10° N visible
02 Sep 7.0 04:11:14 10° N 04:14:17 16° NE 04:17:27 10° E visible
02 Sep 3.8 20:18:06 10° SSW 20:22:55 86° ESE 20:27:49 10° NNE visible
02 Sep 6.8 22:00:54 10° W 22:04:10 17° NW 22:07:21 10° N visible
03 Sep 5.6 04:51:48 10° N 04:56:20 36° ENE 05:00:54 10° SE visible
03 Sep 5.5 21:00:02 10° SW 21:04:30 36° WNW 21:09:00 10° N visible
04 Sep 6.8 03:53:25 10° N 03:56:41 18° NE 04:00:03 10° E visible
04 Sep 3.8 05:32:58 10° NNW 05:37:55 86° WSW 05:42:50 10° SSE visible
04 Sep 3.9 20:00:24 10° SSW 20:05:14 86° WNW 20:10:09 10° NNE visible
04 Sep 6.9 21:43:30 10° W 21:46:34 16° NW 21:49:33 10° N visible
05 Sep 5.3 04:34:04 10° NNW 04:38:41 40° ENE 04:43:20 10° SE visible
05 Sep 5.8 20:42:29 10° WSW 20:46:52 33° NW 20:51:16 10° N visible
06 Sep 6.6 03:35:37 10° N 03:39:05 19° NE 03:42:39 10° E visible
06 Sep 3.8 05:15:18 10° NNW 05:20:14 78° WSW 05:25:09 10° SSE visible
06 Sep 7.0 21:26:07 10° W 21:28:59 15° NW 21:31:42 10° N visible
07 Sep 5.1 04:16:20 10° NNW 04:21:03 44° ENE 04:25:45 10° SE visible
07 Sep 6.0 20:24:56 10° WSW 20:29:14 30° NW 20:33:32 10° N visible
08 Sep 6.4 03:17:49 10° N 03:21:28 21° NE 03:25:12 10° E visible
08 Sep 3.7 04:57:37 10° NNW 05:02:32 71° WSW 05:07:25 10° SSE visible
08 Sep 6.9 21:08:47 10° WNW 21:11:23 14° NW 21:13:51 10° NNW visible
